APRIZESAT 10
Last updated on Tue Sep 22 2026 00:03:52 GMT+0000 (Coordinated Universal Time)
1 40019U 14033K 26264.58644291 .00000214 00000+0 41694-4 0 9998
2 40019 97.9772 29.4623 0077881 326.8465 32.7873 14.70969438656422
Next 0 passes for location: London (51.5072 / 0.1276)
No passes found over London.